[[{"header":{"parameterUnit":"m.s-1","parameterCategory":1,"la1":30.2992,"la2":30.254,"lo1":-89.0895,"lo2":-89.0443,"dy":0.0025,"dx":0.0025,"nx":19,"ny":19,"refTime":"2026-04-10T09:00:00:Z","depth":0,"parameterNumber":2,"parameterNumberName":"U-component_of_WINDS"},"data":[0,0,0,-2.6529,-2.653,-2.6571,-2.6571,-2.6666,-2.6667,0,0,0,0,0,0,0,0,0,0,0,-2.6541,-2.6543,-2.6528,-2.653,-2.6571,-2.6571,-2.6666,-2.6667,0,0,0,0,0,0,0,0,0,0,0,-2.6541,-2.6542,-2.6544,-2.653,-2.6571,-2.6571,-2.6665,-2.6619,0,0,0,0,0,0,0,0,0,0,-2.6572,-2.6608,-2.6542,-2.6544,-2.6531,-2.6571,-2.6571,-2.6617,-2.6622,-2.6665,0,-2.6709,0,-2.669,-2.6676,-2.6677,0,0,0,-2.6512,-2.6604,-2.6592,-2.6545,-2.6532,-2.6571,-2.6548,-2.6619,-2.6626,-2.6673,-2.671,-2.6712,-2.6691,-2.6677,-2.6678,-2.6985,-2.6988,0,0,-2.6509,-2.6562,-2.6588,-2.6598,-2.6593,-2.6546,-2.6549,-2.6623,-2.6667,-2.671,-2.6714,-2.6693,-2.6678,-2.6679,-2.6983,-2.6986,0,0,0,-2.6515,-2.6562,-2.6547,-2.6595,-2.6599,-2.6548,-2.6551,-2.6663,-2.6654,-2.6715,-2.6694,-2.6679,-2.668,-2.698,-2.6984,-2.7151,0,0,0,-2.6513,-2.6565,-2.6547,-2.658,-2.6599,-2.6632,-2.6591,-2.6649,-2.6656,-2.6694,-2.6679,-2.6682,-2.6978,-2.6982,-2.7141,-2.7222,0,0,0,-2.653,-2.6566,-2.6581,-2.6583,-2.6602,-2.6629,-2.6624,-2.6649,-2.6645,-2.6677,-2.6682,-2.6976,-2.6982,-2.7132,-2.7207,-2.7321,0,0,0,-2.6564,-2.6728,-2.6585,-2.676,-2.6603,-2.6732,-2.6623,-2.6716,-2.6763,-2.6679,-2.6978,-2.6984,-2.7129,-2.7198,-2.7311,-2.7428,-2.7481,0,0,-2.6801,-2.6759,-2.6857,-2.673,-2.6899,-2.6721,-2.6914,-2.6907,-2.6861,-2.6947,-2.6953,-2.7144,-2.7206,-2.7319,-2.7753,-2.7795,0,0,0,-2.6951,-2.7023,-2.7056,-2.7104,-2.7102,-2.7108,-2.7065,-2.7063,-2.7133,-2.6916,-2.7213,-2.7248,-2.7312,-2.7365,-2.7401,-2.7454,-2.701,-2.7009,-2.7009,-2.7364,-2.7297,-2.7457,-2.7395,-2.7442,-2.7397,-2.743,-2.7419,-2.7336,-2.7408,-2.7434,-2.7705,-2.777,-2.7796,-2.7852,-2.7487,-2.7488,-2.7488,-2.7489,-2.7708,-2.7801,-2.7687,-2.7802,-2.773,-2.7825,-2.7788,-2.7727,-2.7807,-2.768,-2.7733,-2.7603,-2.7845,-2.789,-2.7501,-2.7498,-2.7497,-2.7496,-2.7495,-2.7974,-2.8007,-2.8,-2.8062,-2.8118,-2.8048,-2.813,-2.8061,-2.7996,-2.8048,-2.807,-2.8067,-2.8058,-2.8063,-2.8064,-2.8064,-2.8065,-2.8066,-2.8067,-2.8254,-2.824,-2.8318,-2.833,-2.8352,-2.8372,-2.8328,-2.8348,-2.8352,-2.8295,-2.8295,-2.8208,-2.788,-2.7801,-2.8081,-2.8078,-2.8077,-2.8075,-2.8074,-2.8632,-2.8535,-2.8656,-2.8678,-2.8687,-2.8748,-2.8657,-2.8704,-2.871,-2.8753,-2.8653,-2.8421,-2.8373,-2.8344,-2.8278,-2.8665,-2.8665,-2.8665,-2.8665,-2.886,-2.8827,-2.8935,-2.8975,-2.9006,-2.8937,-2.9076,-2.9044,-2.8995,-2.8995,-2.8928,-2.8834,-2.8807,-2.8775,-2.8737,-2.8674,-2.9154,-2.9154,-2.9154,-2.909,-2.9058,-2.919,-2.914,-2.9142,-2.9146,-2.9276,-2.9327,-2.9251,-2.9173,-2.8994,-2.8974,-2.882,-2.8773,-2.8695,-2.8637,-2.8521,0,0]},{"header":{"parameterUnit":"m.s-1","parameterCategory":1,"la1":30.2992,"la2":30.254,"lo1":-89.0895,"lo2":-89.0443,"dy":0.0025,"dx":0.0025,"nx":19,"ny":19,"refTime":"2026-04-10T09:00:00:Z","depth":0,"parameterNumber":3,"parameterNumberName":"V-component_of_WINDS"},"data":[0,0,0,-1.6869,-1.6869,-1.6894,-1.6894,-1.6915,-1.6916,0,0,0,0,0,0,0,0,0,0,0,-1.6857,-1.6857,-1.6869,-1.6869,-1.6893,-1.6894,-1.6915,-1.6916,0,0,0,0,0,0,0,0,0,0,0,-1.6857,-1.6857,-1.6857,-1.6869,-1.6893,-1.6894,-1.6915,-1.69,0,0,0,0,0,0,0,0,0,0,-1.6878,-1.6864,-1.6857,-1.6857,-1.6869,-1.6893,-1.6894,-1.6899,-1.6901,-1.6901,0,-1.6901,0,-1.6908,-1.6917,-1.6917,0,0,0,-1.6872,-1.6862,-1.6873,-1.6857,-1.687,-1.6893,-1.6883,-1.69,-1.6902,-1.6903,-1.6901,-1.6902,-1.6909,-1.6917,-1.6917,-1.6907,-1.6907,0,0,-1.6871,-1.6859,-1.6871,-1.6874,-1.6871,-1.6883,-1.6884,-1.6902,-1.6898,-1.6901,-1.6903,-1.6909,-1.6917,-1.6917,-1.6907,-1.6907,0,0,0,-1.6865,-1.6858,-1.6868,-1.6872,-1.6878,-1.6883,-1.6885,-1.6898,-1.6902,-1.6903,-1.6909,-1.6917,-1.6917,-1.6908,-1.6907,-1.6886,0,0,0,-1.6864,-1.6855,-1.6868,-1.6861,-1.6877,-1.6888,-1.688,-1.6901,-1.6903,-1.6909,-1.6917,-1.6917,-1.6908,-1.6907,-1.6887,-1.6877,0,0,0,-1.6857,-1.6854,-1.6856,-1.686,-1.687,-1.6888,-1.6894,-1.6902,-1.6907,-1.6917,-1.6917,-1.6908,-1.6908,-1.6888,-1.6879,-1.687,0,0,0,-1.6846,-1.6837,-1.6856,-1.6848,-1.687,-1.6875,-1.6894,-1.6899,-1.6904,-1.6917,-1.6908,-1.6907,-1.6888,-1.688,-1.6871,-1.6859,-1.6853,0,0,-1.6828,-1.6835,-1.6831,-1.6848,-1.6848,-1.6873,-1.6868,-1.6885,-1.6897,-1.6903,-1.6903,-1.6886,-1.6879,-1.687,-1.6829,-1.6825,0,0,0,-1.6822,-1.6819,-1.6821,-1.6827,-1.6839,-1.6848,-1.6867,-1.6872,-1.6878,-1.6898,-1.6882,-1.6878,-1.6873,-1.6868,-1.6864,-1.6859,-1.6905,-1.6905,-1.6905,-1.678,-1.6795,-1.6789,-1.6807,-1.6812,-1.683,-1.6835,-1.6845,-1.686,-1.6856,-1.6857,-1.6831,-1.6824,-1.6822,-1.6817,-1.6854,-1.6854,-1.6854,-1.6853,-1.6754,-1.6751,-1.677,-1.6772,-1.6787,-1.6788,-1.6805,-1.6815,-1.6817,-1.6832,-1.6828,-1.6841,-1.6816,-1.6813,-1.6852,-1.6852,-1.6852,-1.6853,-1.6853,-1.6727,-1.6728,-1.6735,-1.6743,-1.6747,-1.6765,-1.6766,-1.678,-1.6794,-1.6791,-1.6792,-1.6793,-1.6793,-1.6791,-1.6791,-1.6791,-1.6791,-1.6791,-1.679,-1.6695,-1.6704,-1.6703,-1.6714,-1.6719,-1.6726,-1.6743,-1.6748,-1.6756,-1.6766,-1.6766,-1.6779,-1.6812,-1.6819,-1.6789,-1.6789,-1.679,-1.679,-1.679,-1.666,-1.667,-1.6669,-1.6673,-1.6686,-1.6688,-1.6707,-1.6713,-1.6719,-1.6718,-1.6733,-1.6755,-1.6762,-1.6765,-1.6771,-1.6731,-1.6731,-1.6731,-1.6731,-1.6636,-1.6641,-1.6642,-1.6647,-1.6654,-1.667,-1.6666,-1.6678,-1.6693,-1.6697,-1.6706,-1.6715,-1.6717,-1.6723,-1.6727,-1.6732,-1.6683,-1.6683,-1.6683,-1.6614,-1.6621,-1.6615,-1.663,-1.6641,-1.665,-1.6645,-1.6649,-1.6669,-1.6681,-1.67,-1.6702,-1.6717,-1.6722,-1.6733,-1.6739,-1.6749,0,0]}]]